Location: Adrasan
(36.3319°N, 30.4314°E)
Time: 03:03:16
(UTC+00:00)

COSMO-SKYMED 1 - Pass Details

Date: 18 October 2025
Orbit: 580 x 582 km, 97.9° (Epoch: 13 November)

Event Time Altitude Azimuth Distance (km) Brightness Sun altitude
Rises 16:10:01 0° 12° (NNE) 2,806 5.8 -11.2°
Reaches altitude 10° 16:12:11 10° 14° (NNE) 1,902 4.9 -11.6°
Maximum altitude 16:16:18 84° 101° (E) 588 2.3 -12.4°
Drops below altitude 10° 16:20:24 10° 191° (S) 1,887 5.2 -13.3°
Sets 16:22:32 0° 192° (SSW) 2,781 6.1 -13.7°
